owner,sensor,date,latitude,longitude,air_pressure(mBar),qcFlag 
TABS,ioos:station:wmo:42044:1,2013-10-02T00:00:00Z,26.1914,-97.0507,1010.36,11111222 
TABS,ioos:station:wmo:42044:1,2013-10-02T00:30:00Z,26.1914,-97.0507,1010.78,11111222 
TABS,ioos:station:wmo:42044:1,2013-10-02T01:00:00Z,26.1914,-97.0507,1011.09,11111222 
TABS,ioos:station:wmo:42044:1,2013-10-02T01:30:00Z,26.1914,-97.0507,1011.52,11111222 
TABS,ioos:station:wmo:42044:1,2013-10-02T02:00:00Z,26.1914,-97.0507,1011.73,11111222 
TABS,ioos:station:wmo:42044:1,2013-10-02T02:30:00Z,26.1914,-97.0507,1011.86,11111222 
TABS,ioos:station:wmo:42044:1,2013-10-02T03:00:00Z,26.1914,-97.0507,1011.88,11111222 
TABS,ioos:station:wmo:42044:1,2013-10-02T03:30:00Z,26.1914,-97.0507,1012.04,11111222 
TABS,ioos:station:wmo:42044:1,2013-10-02T04:00:00Z,26.1914,-97.0507,1012.31,11111222 
TABS,ioos:station:wmo:42044:1,2013-10-02T04:30:00Z,26.1914,-97.0507,1012.52,11111222 
TABS,ioos:station:wmo:42044:1,2013-10-02T05:00:00Z,26.1914,-97.0507,1012.5,11111222 
TABS,ioos:station:wmo:42044:1,2013-10-02T05:30:00Z,26.1914,-97.0507,1012.32,11111222 
TABS,ioos:station:wmo:42044:1,2013-10-02T06:00:00Z,26.1914,-97.0507,1012.37,11111222 
TABS,ioos:station:wmo:42044:1,2013-10-02T06:30:00Z,26.1914,-97.0507,1012.34,11111222 
TABS,ioos:station:wmo:42044:1,2013-10-02T07:00:00Z,26.1914,-97.0507,1012.14,11111222 
TABS,ioos:station:wmo:42044:1,2013-10-02T07:30:00Z,26.1914,-97.0507,1011.83,11111222 
TABS,ioos:station:wmo:42044:1,2013-10-02T08:00:00Z,26.1914,-97.0507,1011.62,11111222 
TABS,ioos:station:wmo:42044:1,2013-10-02T08:30:00Z,26.1914,-97.0507,1011.29,11111222 
TABS,ioos:station:wmo:42044:1,2013-10-02T09:00:00Z,26.1914,-97.0507,1011.26,11111222 
TABS,ioos:station:wmo:42044:1,2013-10-02T09:30:00Z,26.1914,-97.0507,1011.18,11111222 
TABS,ioos:station:wmo:42044:1,2013-10-02T10:00:00Z,26.1914,-97.0507,1010.98,11111222 
TABS,ioos:station:wmo:42044:1,2013-10-02T10:30:00Z,26.1914,-97.0507,1011.0,11111222 
TABS,ioos:station:wmo:42044:1,2013-10-02T11:00:00Z,26.1914,-97.0507,1011.19,11111222 
TABS,ioos:station:wmo:42044:1,2013-10-02T11:30:00Z,26.1914,-97.0507,1011.48,11111222 
TABS,ioos:station:wmo:42044:1,2013-10-02T12:00:00Z,26.1914,-97.0507,1011.54,11111222 
TABS,ioos:station:wmo:42044:1,2013-10-02T12:30:00Z,26.1914,-97.0507,1011.69,11111222 
TABS,ioos:station:wmo:42044:1,2013-10-02T13:00:00Z,26.1914,-97.0507,1011.93,11111222 
TABS,ioos:station:wmo:42044:1,2013-10-02T13:30:00Z,26.1914,-97.0507,1012.12,11111222 
TABS,ioos:station:wmo:42044:1,2013-10-02T14:00:00Z,26.1914,-97.0507,1012.2,11111222 
TABS,ioos:station:wmo:42044:1,2013-10-02T14:30:00Z,26.1914,-97.0507,1012.53,11111222 
TABS,ioos:station:wmo:42044:1,2013-10-02T15:00:00Z,26.1914,-97.0507,1012.68,11111222 
TABS,ioos:station:wmo:42044:1,2013-10-02T15:30:00Z,26.1914,-97.0507,1012.9,11111222 
TABS,ioos:station:wmo:42044:1,2013-10-02T16:00:00Z,26.1914,-97.0507,1013.0,11111222 
TABS,ioos:station:wmo:42044:1,2013-10-02T16:30:00Z,26.1914,-97.0507,1012.99,11111222 
TABS,ioos:station:wmo:42044:1,2013-10-02T17:00:00Z,26.1914,-97.0507,1012.79,11111222 
TABS,ioos:station:wmo:42044:1,2013-10-02T17:30:00Z,26.1914,-97.0507,1012.59,11111222 
TABS,ioos:station:wmo:42044:1,2013-10-02T18:00:00Z,26.1914,-97.0507,1012.19,11111222 
TABS,ioos:station:wmo:42044:1,2013-10-02T18:30:00Z,26.1914,-97.0507,1011.91,11111222 
TABS,ioos:station:wmo:42044:1,2013-10-02T19:00:00Z,26.1914,-97.0507,1011.64,11111222 
TABS,ioos:station:wmo:42044:1,2013-10-02T19:30:00Z,26.1914,-97.0507,1011.34,11111222 
TABS,ioos:station:wmo:42044:1,2013-10-02T20:00:00Z,26.1914,-97.0507,1011.14,11111222 
TABS,ioos:station:wmo:42044:1,2013-10-02T20:30:00Z,26.1914,-97.0507,1010.97,11111222 
TABS,ioos:station:wmo:42044:1,2013-10-02T21:00:00Z,26.1914,-97.0507,1010.86,11111222 
TABS,ioos:station:wmo:42044:1,2013-10-02T21:30:00Z,26.1914,-97.0507,1010.92,11111222 
TABS,ioos:station:wmo:42044:1,2013-10-02T22:00:00Z,26.1914,-97.0507,1010.97,11111222 
TABS,ioos:station:wmo:42044:1,2013-10-02T22:30:00Z,26.1914,-97.0507,1010.95,11111222 
TABS,ioos:station:wmo:42044:1,2013-10-02T23:00:00Z,26.1914,-97.0507,1010.88,11111222 
TABS,ioos:station:wmo:42044:1,2013-10-02T23:30:00Z,26.1914,-97.0507,1011.02,11111222 
TABS,ioos:station:wmo:42044:1,2013-10-03T00:00:00Z,26.1914,-97.0507,1011.04,11111222 
TABS,ioos:station:wmo:42044:1,2013-10-03T00:30:00Z,26.1914,-97.0507,1011.09,11111222 
TABS,ioos:station:wmo:42044:1,2013-10-03T01:00:00Z,26.1914,-97.0507,1011.39,11111222 
TABS,ioos:station:wmo:42044:1,2013-10-03T01:30:00Z,26.1914,-97.0507,1011.66,11111222 
TABS,ioos:station:wmo:42044:1,2013-10-03T02:00:00Z,26.1914,-97.0507,1012.0,11111222 
TABS,ioos:station:wmo:42044:1,2013-10-03T02:30:00Z,26.1914,-97.0507,1012.43,11111222 
TABS,ioos:station:wmo:42044:1,2013-10-03T03:00:00Z,26.1914,-97.0507,1012.63,11111222 
TABS,ioos:station:wmo:42044:1,2013-10-03T03:30:00Z,26.1914,-97.0507,1012.62,11111222 
TABS,ioos:station:wmo:42044:1,2013-10-03T04:00:00Z,26.1914,-97.0507,1012.72,11111222 
TABS,ioos:station:wmo:42044:1,2013-10-03T04:30:00Z,26.1914,-97.0507,1012.81,11111222 
TABS,ioos:station:wmo:42044:1,2013-10-03T05:00:00Z,26.1914,-97.0507,1012.83,11111222 
TABS,ioos:station:wmo:42044:1,2013-10-03T05:30:00Z,26.1914,-97.0507,1012.67,11111222 
TABS,ioos:station:wmo:42044:1,2013-10-03T06:00:00Z,26.1914,-97.0507,1012.63,11111222 
TABS,ioos:station:wmo:42044:1,2013-10-03T06:30:00Z,26.1914,-97.0507,1012.48,11111222 
TABS,ioos:station:wmo:42044:1,2013-10-03T07:00:00Z,26.1914,-97.0507,1012.22,11111222 
TABS,ioos:station:wmo:42044:1,2013-10-03T07:30:00Z,26.1914,-97.0507,1011.95,11111222 
TABS,ioos:station:wmo:42044:1,2013-10-03T08:00:00Z,26.1914,-97.0507,1011.73,11111222 
TABS,ioos:station:wmo:42044:1,2013-10-03T08:30:00Z,26.1914,-97.0507,1011.43,11111222 
TABS,ioos:station:wmo:42044:1,2013-10-03T09:00:00Z,26.1914,-97.0507,1011.16,11111222 
TABS,ioos:station:wmo:42044:1,2013-10-03T09:30:00Z,26.1914,-97.0507,1011.22,11111222 
TABS,ioos:station:wmo:42044:1,2013-10-03T10:00:00Z,26.1914,-97.0507,1011.06,11111222 
TABS,ioos:station:wmo:42044:1,2013-10-03T10:30:00Z,26.1914,-97.0507,1011.0,11111222 
TABS,ioos:station:wmo:42044:1,2013-10-03T11:00:00Z,26.1914,-97.0507,1011.12,11111222 
TABS,ioos:station:wmo:42044:1,2013-10-03T11:30:00Z,26.1914,-97.0507,1011.22,11111222 
TABS,ioos:station:wmo:42044:1,2013-10-03T12:00:00Z,26.1914,-97.0507,1011.36,11111222 
TABS,ioos:station:wmo:42044:1,2013-10-03T12:30:00Z,26.1914,-97.0507,1011.53,11111222 
TABS,ioos:station:wmo:42044:1,2013-10-03T13:00:00Z,26.1914,-97.0507,1011.58,11111222 
TABS,ioos:station:wmo:42044:1,2013-10-03T13:30:00Z,26.1914,-97.0507,1011.97,11111222 
TABS,ioos:station:wmo:42044:1,2013-10-03T14:00:00Z,26.1914,-97.0507,1012.25,11111222 
TABS,ioos:station:wmo:42044:1,2013-10-03T14:30:00Z,26.1914,-97.0507,1012.59,11111222 
TABS,ioos:station:wmo:42044:1,2013-10-03T15:00:00Z,26.1914,-97.0507,1012.6,11111222 
TABS,ioos:station:wmo:42044:1,2013-10-03T15:30:00Z,26.1914,-97.0507,1012.71,11111222 
TABS,ioos:station:wmo:42044:1,2013-10-03T16:00:00Z,26.1914,-97.0507,1012.78,11111222 
TABS,ioos:station:wmo:42044:1,2013-10-03T16:30:00Z,26.1914,-97.0507,1012.77,11111222 
TABS,ioos:station:wmo:42044:1,2013-10-03T17:00:00Z,26.1914,-97.0507,1012.7,11111222 
TABS,ioos:station:wmo:42044:1,2013-10-03T17:30:00Z,26.1914,-97.0507,1012.6,11111222 
TABS,ioos:station:wmo:42044:1,2013-10-03T18:00:00Z,26.1914,-97.0507,1012.31,11111222 
TABS,ioos:station:wmo:42044:1,2013-10-03T18:30:00Z,26.1914,-97.0507,1011.96,11111222 
TABS,ioos:station:wmo:42044:1,2013-10-03T19:00:00Z,26.1914,-97.0507,1011.65,11111222 
TABS,ioos:station:wmo:42044:1,2013-10-03T19:30:00Z,26.1914,-97.0507,1011.27,11111222 
TABS,ioos:station:wmo:42044:1,2013-10-03T20:00:00Z,26.1914,-97.0507,1011.01,11111222 
TABS,ioos:station:wmo:42044:1,2013-10-03T20:30:00Z,26.1914,-97.0507,1010.87,11111222 
TABS,ioos:station:wmo:42044:1,2013-10-03T21:00:00Z,26.1914,-97.0507,1010.66,11111222 
TABS,ioos:station:wmo:42044:1,2013-10-03T21:30:00Z,26.1914,-97.0507,1010.58,11111222 
TABS,ioos:station:wmo:42044:1,2013-10-03T22:00:00Z,26.1914,-97.0507,1010.43,11111222 
TABS,ioos:station:wmo:42044:1,2013-10-03T22:30:00Z,26.1914,-97.0507,1010.42,11111222 
TABS,ioos:station:wmo:42044:1,2013-10-03T23:00:00Z,26.1914,-97.0507,1010.39,11111222 
TABS,ioos:station:wmo:42044:1,2013-10-03T23:30:00Z,26.1914,-97.0507,1010.5,11111222 
TABS,ioos:station:wmo:42044:1,2013-10-04T00:00:00Z,26.1914,-97.0507,1010.56,11111222 
TABS,ioos:station:wmo:42044:1,2013-10-04T00:30:00Z,26.1914,-97.0507,1010.63,11111222 
TABS,ioos:station:wmo:42044:1,2013-10-04T01:00:00Z,26.1914,-97.0507,1010.88,11111222 
TABS,ioos:station:wmo:42044:1,2013-10-04T01:30:00Z,26.1914,-97.0507,1011.12,11111222 
TABS,ioos:station:wmo:42044:1,2013-10-04T02:00:00Z,26.1914,-97.0507,1011.41,11111222 
TABS,ioos:station:wmo:42044:1,2013-10-04T02:30:00Z,26.1914,-97.0507,1011.56,11111222 
TABS,ioos:station:wmo:42044:1,2013-10-04T03:00:00Z,26.1914,-97.0507,1011.73,11111222 
TABS,ioos:station:wmo:42044:1,2013-10-04T03:30:00Z,26.1914,-97.0507,1011.81,11111222 
TABS,ioos:station:wmo:42044:1,2013-10-04T04:00:00Z,26.1914,-97.0507,1011.81,11111222 
TABS,ioos:station:wmo:42044:1,2013-10-04T04:30:00Z,26.1914,-97.0507,1011.78,11111222 
TABS,ioos:station:wmo:42044:1,2013-10-04T05:00:00Z,26.1914,-97.0507,1011.68,11111222 
TABS,ioos:station:wmo:42044:1,2013-10-04T05:30:00Z,26.1914,-97.0507,1011.7,11111222 
TABS,ioos:station:wmo:42044:1,2013-10-04T06:00:00Z,26.1914,-97.0507,1011.58,11111222 
TABS,ioos:station:wmo:42044:1,2013-10-04T06:30:00Z,26.1914,-97.0507,1011.56,11111222 
TABS,ioos:station:wmo:42044:1,2013-10-04T07:00:00Z,26.1914,-97.0507,1011.56,11111222 
TABS,ioos:station:wmo:42044:1,2013-10-04T07:30:00Z,26.1914,-97.0507,1011.25,11111222 
TABS,ioos:station:wmo:42044:1,2013-10-04T08:00:00Z,26.1914,-97.0507,1010.99,11111222 
TABS,ioos:station:wmo:42044:1,2013-10-04T08:30:00Z,26.1914,-97.0507,1011.03,11111222 
TABS,ioos:station:wmo:42044:1,2013-10-04T09:00:00Z,26.1914,-97.0507,1010.9,11111222 
TABS,ioos:station:wmo:42044:1,2013-10-04T09:30:00Z,26.1914,-97.0507,1010.84,11111222 
TABS,ioos:station:wmo:42044:1,2013-10-04T10:00:00Z,26.1914,-97.0507,1010.92,11111222 
TABS,ioos:station:wmo:42044:1,2013-10-04T10:30:00Z,26.1914,-97.0507,1011.1,11111222 
TABS,ioos:station:wmo:42044:1,2013-10-04T11:00:00Z,26.1914,-97.0507,1011.23,11111222 
TABS,ioos:station:wmo:42044:1,2013-10-04T11:30:00Z,26.1914,-97.0507,1011.34,11111222 
TABS,ioos:station:wmo:42044:1,2013-10-04T12:00:00Z,26.1914,-97.0507,1011.38,11111222 
TABS,ioos:station:wmo:42044:1,2013-10-04T12:30:00Z,26.1914,-97.0507,1011.54,11111222 
TABS,ioos:station:wmo:42044:1,2013-10-04T13:00:00Z,26.1914,-97.0507,1011.69,11111222 
TABS,ioos:station:wmo:42044:1,2013-10-04T13:30:00Z,26.1914,-97.0507,1011.75,11111222 
TABS,ioos:station:wmo:42044:1,2013-10-04T14:00:00Z,26.1914,-97.0507,1011.99,11111222 
TABS,ioos:station:wmo:42044:1,2013-10-04T14:30:00Z,26.1914,-97.0507,1012.37,11111222 
TABS,ioos:station:wmo:42044:1,2013-10-04T15:00:00Z,26.1914,-97.0507,1012.52,11111222 
TABS,ioos:station:wmo:42044:1,2013-10-04T15:30:00Z,26.1914,-97.0507,1012.54,11111222 
TABS,ioos:station:wmo:42044:1,2013-10-04T16:00:00Z,26.1914,-97.0507,1012.66,11111222 
TABS,ioos:station:wmo:42044:1,2013-10-04T16:30:00Z,26.1914,-97.0507,1012.58,11111222 
TABS,ioos:station:wmo:42044:1,2013-10-04T17:00:00Z,26.1914,-97.0507,1012.44,11111222 
TABS,ioos:station:wmo:42044:1,2013-10-04T17:30:00Z,26.1914,-97.0507,1012.24,11111222 
TABS,ioos:station:wmo:42044:1,2013-10-04T18:00:00Z,26.1914,-97.0507,1011.97,11111222 
TABS,ioos:station:wmo:42044:1,2013-10-04T18:30:00Z,26.1914,-97.0507,1011.86,11111222 
TABS,ioos:station:wmo:42044:1,2013-10-04T19:00:00Z,26.1914,-97.0507,1011.49,11111222 
TABS,ioos:station:wmo:42044:1,2013-10-04T19:30:00Z,26.1914,-97.0507,1011.2,11111222 
TABS,ioos:station:wmo:42044:1,2013-10-04T20:00:00Z,26.1914,-97.0507,1011.07,11111222 
TABS,ioos:station:wmo:42044:1,2013-10-04T20:30:00Z,26.1914,-97.0507,1010.9,11111222 
TABS,ioos:station:wmo:42044:1,2013-10-04T21:00:00Z,26.1914,-97.0507,1010.84,11111222 
TABS,ioos:station:wmo:42044:1,2013-10-04T21:30:00Z,26.1914,-97.0507,1010.8,11111222 
TABS,ioos:station:wmo:42044:1,2013-10-04T22:00:00Z,26.1914,-97.0507,1010.63,11111222 
TABS,ioos:station:wmo:42044:1,2013-10-04T22:30:00Z,26.1914,-97.0507,1010.57,11111222 
TABS,ioos:station:wmo:42044:1,2013-10-04T23:00:00Z,26.1914,-97.0507,1010.68,11111222 
TABS,ioos:station:wmo:42044:1,2013-10-04T23:30:00Z,26.1914,-97.0507,1010.79,11111222 
TABS,ioos:station:wmo:42044:1,2013-10-05T00:00:00Z,26.1914,-97.0507,1010.92,11111222 
TABS,ioos:station:wmo:42044:1,2013-10-05T00:30:00Z,26.1914,-97.0507,1010.93,11111222 
TABS,ioos:station:wmo:42044:1,2013-10-05T01:00:00Z,26.1914,-97.0507,1011.06,11111222 
TABS,ioos:station:wmo:42044:1,2013-10-05T01:30:00Z,26.1914,-97.0507,1011.53,11111222 
TABS,ioos:station:wmo:42044:1,2013-10-05T02:00:00Z,26.1914,-97.0507,1011.68,11111222 
TABS,ioos:station:wmo:42044:1,2013-10-05T02:30:00Z,26.1914,-97.0507,1011.99,11111222 
TABS,ioos:station:wmo:42044:1,2013-10-05T03:00:00Z,26.1914,-97.0507,1012.1,11111222 
TABS,ioos:station:wmo:42044:1,2013-10-05T03:30:00Z,26.1914,-97.0507,1012.34,11111222 
TABS,ioos:station:wmo:42044:1,2013-10-05T04:00:00Z,26.1914,-97.0507,1012.34,11111222 
TABS,ioos:station:wmo:42044:1,2013-10-05T04:30:00Z,26.1914,-97.0507,1012.16,11111222 
TABS,ioos:station:wmo:42044:1,2013-10-05T05:00:00Z,26.1914,-97.0507,1011.98,11111222 
TABS,ioos:station:wmo:42044:1,2013-10-05T05:30:00Z,26.1914,-97.0507,1011.72,11111222 
TABS,ioos:station:wmo:42044:1,2013-10-05T06:00:00Z,26.1914,-97.0507,1011.49,11111222 
TABS,ioos:station:wmo:42044:1,2013-10-05T06:30:00Z,26.1914,-97.0507,1011.47,11111222 
TABS,ioos:station:wmo:42044:1,2013-10-05T07:00:00Z,26.1914,-97.0507,1011.24,11111222 
TABS,ioos:station:wmo:42044:1,2013-10-05T07:30:00Z,26.1914,-97.0507,1011.14,11111222 
TABS,ioos:station:wmo:42044:1,2013-10-05T08:00:00Z,26.1914,-97.0507,1010.91,11111222 
TABS,ioos:station:wmo:42044:1,2013-10-05T08:30:00Z,26.1914,-97.0507,1010.67,11111222 
TABS,ioos:station:wmo:42044:1,2013-10-05T09:00:00Z,26.1914,-97.0507,1010.64,11111222 
TABS,ioos:station:wmo:42044:1,2013-10-05T09:30:00Z,26.1914,-97.0507,1010.47,11111222 
TABS,ioos:station:wmo:42044:1,2013-10-05T10:00:00Z,26.1914,-97.0507,1010.61,11111222 
TABS,ioos:station:wmo:42044:1,2013-10-05T10:30:00Z,26.1914,-97.0507,1010.67,11111222 
TABS,ioos:station:wmo:42044:1,2013-10-05T11:00:00Z,26.1914,-97.0507,1010.85,11111222 
TABS,ioos:station:wmo:42044:1,2013-10-05T11:30:00Z,26.1914,-97.0507,1011.06,11111222 
TABS,ioos:station:wmo:42044:1,2013-10-05T12:00:00Z,26.1914,-97.0507,1011.06,11111222 
TABS,ioos:station:wmo:42044:1,2013-10-05T12:30:00Z,26.1914,-97.0507,1011.15,11111222 
TABS,ioos:station:wmo:42044:1,2013-10-05T13:00:00Z,26.1914,-97.0507,1011.2,11111222 
TABS,ioos:station:wmo:42044:1,2013-10-05T13:30:00Z,26.1914,-97.0507,1011.5,11111222 
TABS,ioos:station:wmo:42044:1,2013-10-05T14:00:00Z,26.1914,-97.0507,1011.7,11111222 
TABS,ioos:station:wmo:42044:1,2013-10-05T14:30:00Z,26.1914,-97.0507,1012.1,11111222 
TABS,ioos:station:wmo:42044:1,2013-10-05T15:00:00Z,26.1914,-97.0507,1012.19,11111222 
TABS,ioos:station:wmo:42044:1,2013-10-05T15:30:00Z,26.1914,-97.0507,1012.33,11111222 
TABS,ioos:station:wmo:42044:1,2013-10-05T16:00:00Z,26.1914,-97.0507,1012.45,11111222 
TABS,ioos:station:wmo:42044:1,2013-10-05T16:30:00Z,26.1914,-97.0507,1012.49,11111222 
TABS,ioos:station:wmo:42044:1,2013-10-05T17:00:00Z,26.1914,-97.0507,1012.44,11111222 
TABS,ioos:station:wmo:42044:1,2013-10-05T17:30:00Z,26.1914,-97.0507,1012.14,11111222 
TABS,ioos:station:wmo:42044:1,2013-10-05T18:00:00Z,26.1914,-97.0507,1011.73,11111222 
TABS,ioos:station:wmo:42044:1,2013-10-05T18:30:00Z,26.1914,-97.0507,1011.49,11111222 
TABS,ioos:station:wmo:42044:1,2013-10-05T19:00:00Z,26.1914,-97.0507,1011.08,11111222 
TABS,ioos:station:wmo:42044:1,2013-10-05T19:30:00Z,26.1914,-97.0507,1010.59,11111222 
TABS,ioos:station:wmo:42044:1,2013-10-05T20:00:00Z,26.1914,-97.0507,1010.16,11111222 
TABS,ioos:station:wmo:42044:1,2013-10-05T20:30:00Z,26.1914,-97.0507,1010.0,11111222 
TABS,ioos:station:wmo:42044:1,2013-10-05T21:00:00Z,26.1914,-97.0507,1009.98,11111222 
TABS,ioos:station:wmo:42044:1,2013-10-05T21:30:00Z,26.1914,-97.0507,1009.91,11111222 
TABS,ioos:station:wmo:42044:1,2013-10-05T22:00:00Z,26.1914,-97.0507,1009.95,11111222 
TABS,ioos:station:wmo:42044:1,2013-10-05T22:30:00Z,26.1914,-97.0507,1010.02,11111222 
TABS,ioos:station:wmo:42044:1,2013-10-05T23:00:00Z,26.1914,-97.0507,1010.34,11111222 
TABS,ioos:station:wmo:42044:1,2013-10-05T23:30:00Z,26.1914,-97.0507,1010.71,11111222 
TABS,ioos:station:wmo:42044:1,2013-10-06T00:00:00Z,26.1914,-97.0507,1011.04,11111222 
TABS,ioos:station:wmo:42044:1,2013-10-06T00:30:00Z,26.1914,-97.0507,1011.32,11111222 
TABS,ioos:station:wmo:42044:1,2013-10-06T01:00:00Z,26.1914,-97.0507,1011.87,11111222 
TABS,ioos:station:wmo:42044:1,2013-10-06T01:30:00Z,26.1914,-97.0507,1012.06,11111222 
TABS,ioos:station:wmo:42044:1,2013-10-06T02:00:00Z,26.1914,-97.0507,1012.25,11111222 
TABS,ioos:station:wmo:42044:1,2013-10-06T02:30:00Z,26.1914,-97.0507,1012.45,11111222 
TABS,ioos:station:wmo:42044:1,2013-10-06T03:00:00Z,26.1914,-97.0507,1012.78,11111222 
TABS,ioos:station:wmo:42044:1,2013-10-06T03:30:00Z,26.1914,-97.0507,1012.96,11111222 
TABS,ioos:station:wmo:42044:1,2013-10-06T04:00:00Z,26.1914,-97.0507,1012.93,11111222 
TABS,ioos:station:wmo:42044:1,2013-10-06T04:30:00Z,26.1914,-97.0507,1012.8,11111222 
TABS,ioos:station:wmo:42044:1,2013-10-06T05:00:00Z,26.1914,-97.0507,1012.74,11111222 
TABS,ioos:station:wmo:42044:1,2013-10-06T05:30:00Z,26.1914,-97.0507,1012.64,11111222 
TABS,ioos:station:wmo:42044:1,2013-10-06T06:00:00Z,26.1914,-97.0507,1012.84,11111222 
TABS,ioos:station:wmo:42044:1,2013-10-06T06:30:00Z,26.1914,-97.0507,1012.85,11111222 
TABS,ioos:station:wmo:42044:1,2013-10-06T07:00:00Z,26.1914,-97.0507,1012.89,11111222 
TABS,ioos:station:wmo:42044:1,2013-10-06T07:30:00Z,26.1914,-97.0507,1012.72,11111222 
TABS,ioos:station:wmo:42044:1,2013-10-06T08:00:00Z,26.1914,-97.0507,1012.22,11111222 
TABS,ioos:station:wmo:42044:1,2013-10-06T08:30:00Z,26.1914,-97.0507,1012.3,11111222 
TABS,ioos:station:wmo:42044:1,2013-10-06T09:00:00Z,26.1914,-97.0507,1012.38,11111222 
TABS,ioos:station:wmo:42044:1,2013-10-06T09:30:00Z,26.1914,-97.0507,1012.51,11111222 
TABS,ioos:station:wmo:42044:1,2013-10-06T10:00:00Z,26.1914,-97.0507,1012.49,11111222 
TABS,ioos:station:wmo:42044:1,2013-10-06T10:30:00Z,26.1914,-97.0507,1012.84,11111222 
TABS,ioos:station:wmo:42044:1,2013-10-06T11:00:00Z,26.1914,-97.0507,1013.15,11111222 
TABS,ioos:station:wmo:42044:1,2013-10-06T11:30:00Z,26.1914,-97.0507,1013.41,11111222 
TABS,ioos:station:wmo:42044:1,2013-10-06T12:00:00Z,26.1914,-97.0507,1013.72,11111222 
TABS,ioos:station:wmo:42044:1,2013-10-06T12:30:00Z,26.1914,-97.0507,1014.2,11111222 
TABS,ioos:station:wmo:42044:1,2013-10-06T13:00:00Z,26.1914,-97.0507,1014.82,11111222 
TABS,ioos:station:wmo:42044:1,2013-10-06T13:30:00Z,26.1914,-97.0507,1015.44,11111222 
TABS,ioos:station:wmo:42044:1,2013-10-06T14:00:00Z,26.1914,-97.0507,1016.05,11111222 
TABS,ioos:station:wmo:42044:1,2013-10-06T14:30:00Z,26.1914,-97.0507,1016.57,11111222 
TABS,ioos:station:wmo:42044:1,2013-10-06T15:00:00Z,26.1914,-97.0507,1016.6,11111222 
TABS,ioos:station:wmo:42044:1,2013-10-06T15:30:00Z,26.1914,-97.0507,1017.12,11111222 
TABS,ioos:station:wmo:42044:1,2013-10-06T16:00:00Z,26.1914,-97.0507,1017.35,11111222 
TABS,ioos:station:wmo:42044:1,2013-10-06T16:30:00Z,26.1914,-97.0507,1017.4,11111222 
TABS,ioos:station:wmo:42044:1,2013-10-06T17:00:00Z,26.1914,-97.0507,1017.25,11111222 
TABS,ioos:station:wmo:42044:1,2013-10-06T17:30:00Z,26.1914,-97.0507,1016.91,11111222 
TABS,ioos:station:wmo:42044:1,2013-10-06T18:00:00Z,26.1914,-97.0507,1016.64,11111222 
TABS,ioos:station:wmo:42044:1,2013-10-06T18:30:00Z,26.1914,-97.0507,1016.7,11111222 
TABS,ioos:station:wmo:42044:1,2013-10-06T19:00:00Z,26.1914,-97.0507,1016.69,11111222 
TABS,ioos:station:wmo:42044:1,2013-10-06T19:30:00Z,26.1914,-97.0507,1016.62,11111222 
TABS,ioos:station:wmo:42044:1,2013-10-06T20:00:00Z,26.1914,-97.0507,1016.4,11111222 
TABS,ioos:station:wmo:42044:1,2013-10-06T20:30:00Z,26.1914,-97.0507,1016.27,11111222 
TABS,ioos:station:wmo:42044:1,2013-10-06T21:00:00Z,26.1914,-97.0507,1016.49,11111222 
TABS,ioos:station:wmo:42044:1,2013-10-06T21:30:00Z,26.1914,-97.0507,1016.98,11111222 
TABS,ioos:station:wmo:42044:1,2013-10-06T22:00:00Z,26.1914,-97.0507,1017.02,11111222 
TABS,ioos:station:wmo:42044:1,2013-10-06T22:30:00Z,26.1914,-97.0507,1017.0,11111222 
TABS,ioos:station:wmo:42044:1,2013-10-06T23:00:00Z,26.1914,-97.0507,1017.24,11111222 
TABS,ioos:station:wmo:42044:1,2013-10-06T23:30:00Z,26.1914,-97.0507,1017.76,11111222 
TABS,ioos:station:wmo:42044:1,2013-10-07T00:00:00Z,26.1914,-97.0507,1017.81,11111222 
TABS,ioos:station:wmo:42044:1,2013-10-07T00:30:00Z,26.1914,-97.0507,1017.82,11111222 
TABS,ioos:station:wmo:42044:1,2013-10-07T01:00:00Z,26.1914,-97.0507,1017.37,11111222 
TABS,ioos:station:wmo:42044:1,2013-10-07T01:30:00Z,26.1914,-97.0507,1017.55,11111222 
TABS,ioos:station:wmo:42044:1,2013-10-07T02:00:00Z,26.1914,-97.0507,1017.63,11111222 
TABS,ioos:station:wmo:42044:1,2013-10-07T02:30:00Z,26.1914,-97.0507,1017.97,11111222 
TABS,ioos:station:wmo:42044:1,2013-10-07T03:00:00Z,26.1914,-97.0507,1018.08,11111222 
TABS,ioos:station:wmo:42044:1,2013-10-07T03:30:00Z,26.1914,-97.0507,1018.62,11111222 
TABS,ioos:station:wmo:42044:1,2013-10-07T04:00:00Z,26.1914,-97.0507,1018.87,11111222 
TABS,ioos:station:wmo:42044:1,2013-10-07T04:30:00Z,26.1914,-97.0507,1018.7,11111222 
TABS,ioos:station:wmo:42044:1,2013-10-07T05:00:00Z,26.1914,-97.0507,1018.39,11111222 
TABS,ioos:station:wmo:42044:1,2013-10-07T05:30:00Z,26.1914,-97.0507,1018.17,11111222 
TABS,ioos:station:wmo:42044:1,2013-10-07T06:00:00Z,26.1914,-97.0507,1018.13,11111222 
TABS,ioos:station:wmo:42044:1,2013-10-07T06:30:00Z,26.1914,-97.0507,1018.19,11111222 
TABS,ioos:station:wmo:42044:1,2013-10-07T07:00:00Z,26.1914,-97.0507,1018.48,11111222 
TABS,ioos:station:wmo:42044:1,2013-10-07T07:30:00Z,26.1914,-97.0507,1018.06,11111222 
TABS,ioos:station:wmo:42044:1,2013-10-07T08:00:00Z,26.1914,-97.0507,1018.01,11111222 
TABS,ioos:station:wmo:42044:1,2013-10-07T08:30:00Z,26.1914,-97.0507,1017.67,11111222 
TABS,ioos:station:wmo:42044:1,2013-10-07T09:00:00Z,26.1914,-97.0507,1018.0,11111222 
TABS,ioos:station:wmo:42044:1,2013-10-07T09:30:00Z,26.1914,-97.0507,1017.83,11111222 
TABS,ioos:station:wmo:42044:1,2013-10-07T10:00:00Z,26.1914,-97.0507,1018.07,11111222 
TABS,ioos:station:wmo:42044:1,2013-10-07T10:30:00Z,26.1914,-97.0507,1018.13,11111222 
TABS,ioos:station:wmo:42044:1,2013-10-07T11:00:00Z,26.1914,-97.0507,1018.19,11111222 
TABS,ioos:station:wmo:42044:1,2013-10-07T11:30:00Z,26.1914,-97.0507,1018.51,11111222 
TABS,ioos:station:wmo:42044:1,2013-10-07T12:00:00Z,26.1914,-97.0507,1018.72,11111222 
TABS,ioos:station:wmo:42044:1,2013-10-07T12:30:00Z,26.1914,-97.0507,1019.08,11111222 
TABS,ioos:station:wmo:42044:1,2013-10-07T13:00:00Z,26.1914,-97.0507,1019.73,11111222 
TABS,ioos:station:wmo:42044:1,2013-10-07T13:30:00Z,26.1914,-97.0507,1019.86,11111222 
TABS,ioos:station:wmo:42044:1,2013-10-07T14:00:00Z,26.1914,-97.0507,1019.98,11111222 
TABS,ioos:station:wmo:42044:1,2013-10-07T14:30:00Z,26.1914,-97.0507,1020.44,11111222 
TABS,ioos:station:wmo:42044:1,2013-10-07T15:00:00Z,26.1914,-97.0507,1020.42,11111222 
TABS,ioos:station:wmo:42044:1,2013-10-07T15:30:00Z,26.1914,-97.0507,1020.72,11111222 
TABS,ioos:station:wmo:42044:1,2013-10-07T16:00:00Z,26.1914,-97.0507,1020.75,11111222 
TABS,ioos:station:wmo:42044:1,2013-10-07T16:30:00Z,26.1914,-97.0507,1020.58,11111222 
TABS,ioos:station:wmo:42044:1,2013-10-07T17:00:00Z,26.1914,-97.0507,1020.4,11111222 
TABS,ioos:station:wmo:42044:1,2013-10-07T17:30:00Z,26.1914,-97.0507,1020.1,11111222 
TABS,ioos:station:wmo:42044:1,2013-10-07T18:00:00Z,26.1914,-97.0507,1019.78,11111222 
TABS,ioos:station:wmo:42044:1,2013-10-07T18:30:00Z,26.1914,-97.0507,1019.4,11111222 